Orbital Elements at Epoch 2459000.5 (2020-May-31.0) TDB
Reference: JPL 30 (heliocentric ecliptic J2000)
Element | Value | Uncertainty (1-sigma) | Units |
e | .1021478466515809 | 4.0528e-08 | |
a | 3.220272622256411 | 1.7422e-08 | au |
q | 2.891328708261879 | 1.3503e-07 | au |
i | 14.95396405206501 | 5.2638e-06 | deg |
node | 303.3579067982931 | 1.5972e-05 | deg |
peri | 80.82016295235104 | 2.9934e-05 | deg |
M | 258.6992364105627 | 2.6294e-05 | deg |
tp | 2459594.446879327755 (2022-Jan-14.94687933) | 0.00015645 | TDB |
period | 2110.752860902294 5.78 | 1.7129e-05 4.69e-08 | d yr |
n | .1705552585848961 | 1.3841e-09 | deg/d |
Q | 3.549216536250943 | 1.9201e-08 | au |
|
| | Orbit Determination Parameters
Additional Information
|